FW0984 Weather Reports


Display with metric or nautical units.
time (UTC)temp
F
wind
direction
speed
MPH
gust
MPH
rain 1hr
in
rain 24hr
in
rain mn
in
humidity
%
barometer
mb
20260905051555 71 132 0.0 0.0 0.00 0.00 0.00 95 1014.4
20260905050053 71 132 0.0 0.0 0.00 0.00 0.00 95 1014.5
20260905044552 71 132 0.0 0.0 0.00 0.00 0.00 95 1014.6
20260905043050 71 132 0.0 0.0 0.00 0.00 0.00 95 1014.6
20260905041549 71 132 0.0 0.0 0.00 0.00 0.00 95 1014.6
20260905040047 71 132 0.0 0.0 0.00 0.00 0.00 95 1014.5
20260905034550 72 132 0.0 0.0 0.00 0.00 0.00 95 1014.6
20260905033046 72 132 0.0 0.0 0.00 0.00 0.00 94 1014.6
20260905031550 72 132 0.0 0.0 0.00 0.00 0.00 94 1014.6
20260905030045 72 132 0.0 0.0 0.00 0.00 0.00 93 1014.5
20260905024610 72 132 0.0 0.0 0.00 0.00 0.00 93 1014.5
20260905023045 72 132 0.0 0.0 0.00 0.00 0.00 93 1014.5
20260905021545 73 132 0.0 0.0 0.00 0.00 0.00 92 1014.5
20260905020049 73 132 0.0 0.0 0.00 0.00 0.00 92 1014.5
20260905014545 73 132 0.0 0.0 0.00 0.00 0.00 91 1014.3
20260905013042 74 132 0.0 0.0 0.00 0.00 0.00 90 1013.9
20260905011552 74 132 0.0 0.0 0.00 0.00 0.00 90 1013.7
20260905010043 74 132 0.0 0.0 0.00 0.00 0.00 89 1013.6
20260905004550 75 132 0.0 0.0 0.00 0.00 0.00 88 1013.5
20260905003040 75 132 0.0 0.0 0.00 0.00 0.00 87 1013.5
20260905001540 76 132 0.0 0.0 0.00 0.00 0.00 85 1013.4
20260905000039 76 132 0.0 0.0 0.00 0.00 0.00 86 1013.4
20260904234546 77 131 0.0 0.0 0.00 0.00 0.00 84 1013.5
20260904233052 78 132 0.0 0.0 0.00 0.00 0.00 82 1013.6
20260904231536 78 131 0.0 0.0 0.00 0.00 0.00 81 1013.5
20260904230036 79 113 0.0 0.0 0.00 0.00 0.00 78 1013.5
20260904224544 79 123 0.0 0.0 0.00 0.00 0.00 80 1013.7
20260904223040 79 123 0.0 0.0 0.00 0.00 0.00 79 1013.6
20260904221532 78 267 0.0 0.0 0.00 0.00 0.00 85 1014.1
20260904220034 77 145 0.0 0.0 0.00 0.00 0.00 82 1014.4
20260904214540 78 303 0.0 0.0 0.00 0.00 0.00 79 1014.5
20260904213032 80 92 0.0 6.0 0.00 0.00 0.00 73 1015.3
20260904211529 81 128 1.0 7.0 0.00 0.00 0.00 73 1015.3
20260904210029 83 99 3.0 11.0 0.00 0.00 0.00 68 1014.7
20260904204528 85 170 3.0 14.0 0.00 0.00 0.00 64 1014.6
20260904203027 94 83 1.0 8.0 0.00 0.00 0.00 52 1014.3
20260904201525 94 63 1.0 6.0 0.00 0.00 0.00 52 1014.0
20260904200030 94 261 0.0 5.0 0.00 0.00 0.00 55 1014.0
20260904194523 94 192 0.0 7.0 0.00 0.00 0.00 54 1014.1
20260904193029 93 20 0.0 3.0 0.00 0.00 0.00 54 1013.9
20260904191522 93 40 1.0 3.0 0.00 0.00 0.00 56 1014.1
20260904190020 91 257 0.0 5.0 0.00 0.00 0.00 58 1014.4
20260904184522 91 292 0.0 4.0 0.00 0.00 0.00 58 1014.6
20260904183018 94 295 1.0 6.0 0.00 0.00 0.00 52 1014.7
20260904181515 93 253 0.0 6.0 0.00 0.00 0.00 55 1014.8
20260904180015 92 251 0.0 3.0 0.00 0.00 0.00 55 1015.2
20260904174513 93 247 0.0 2.0 0.00 0.00 0.00 60 1015.4
20260904173013 93 290 0.0 2.0 0.00 0.00 0.00 56 1015.6
20260904171512 93 299 0.0 3.0 0.00 0.00 0.00 59 1015.7
20260904170010 92 306 0.0 3.0 0.00 0.00 0.00 58 1015.8
20260904164509 92 218 0.0 6.0 0.00 0.00 0.00 58 1015.8
20260904163007 92 298 1.0 6.0 0.00 0.00 0.00 60 1016.0
20260904161504 92 278 0.0 0.0 0.00 0.00 0.00 63 1016.1
20260904154557 91 163 0.0 0.0 0.00 0.00 0.00 64 1016.2
20260904153102 90 272 0.0 0.0 0.00 0.00 0.00 67 1016.2
20260904151550 90 248 0.0 0.0 0.00 0.00 0.00 70 1016.0
20260904150048 89 286 0.0 0.0 0.00 0.00 0.00 67 1016.1
20260904144542 88 172 0.0 0.0 0.00 0.00 0.00 73 1016.1
20260904143038 86 197 0.0 0.0 0.00 0.00 0.00 73 1016.0
20260904141537 85 75 0.0 0.0 0.00 0.00 0.00 80 1016.0
20260904140029 77 87 0.0 0.0 0.00 0.00 0.00 97 1016.0
20260904134525 76 159 0.0 0.0 0.00 0.00 0.00 97 1016.1
20260904133022 75 159 0.0 0.0 0.00 0.00 0.00 97 1016.2
20260904131521 75 159 0.0 0.0 0.00 0.00 0.00 97 1016.3
20260904130016 74 159 0.0 0.0 0.00 0.00 0.00 97 1016.2
20260904124515 73 159 0.0 0.0 0.00 0.00 0.00 97 1016.3
20260904123013 73 159 0.0 0.0 0.00 0.00 0.00 96 1016.2
20260904121513 72 159 0.0 0.0 0.00 0.00 0.00 96 1016.1
20260904120009 71 159 0.0 0.0 0.00 0.00 0.00 96 1015.8
20260904114505 71 159 0.0 0.0 0.00 0.00 0.00 95 1015.6
20260904113002 71 159 0.0 0.0 0.00 0.00 0.00 95 1015.6
20260904111601 71 159 0.0 0.0 0.00 0.00 0.00 95 1015.4
20260904110058 71 159 0.0 0.0 0.00 0.00 0.00 95 1015.0
20260904104559 72 159 0.0 0.0 0.00 0.00 0.00 95 1014.9
20260904103102 72 159 0.0 0.0 0.00 0.00 0.00 95 1014.8
20260904101601 72 159 0.0 0.0 0.00 0.00 0.00 95 1015.0
20260904100053 72 159 0.0 0.0 0.00 0.00 0.00 95 1015.1
20260904094550 72 159 0.0 0.0 0.00 0.00 0.00 95 1015.0
20260904093049 72 159 0.0 0.0 0.00 0.00 0.00 95 1014.9
20260904091549 72 159 0.0 0.0 0.00 0.00 0.00 95 1015.0
20260904090048 72 159 0.0 0.0 0.00 0.00 0.00 95 1015.1
20260904084547 72 159 0.0 0.0 0.00 0.00 0.00 95 1015.1
20260904083054 72 159 0.0 0.0 0.00 0.00 0.00 95 1015.0
20260904081545 72 159 0.0 0.0 0.00 0.00 0.00 95 1015.1
20260904080045 72 159 0.0 0.0 0.00 0.00 0.00 95 1015.1
20260904074554 72 159 0.0 0.0 0.00 0.00 0.00 95 1015.1
20260904073044 72 159 0.0 0.0 0.00 0.00 0.00 95 1015.2
20260904071542 72 159 0.0 0.0 0.00 0.00 0.00 94 1015.3
20260904070041 73 159 0.0 0.0 0.00 0.00 0.00 95 1015.3
20260904064539 73 159 0.0 0.0 0.00 0.00 0.00 95 1015.5
20260904063052 73 159 0.0 0.0 0.00 0.00 0.00 95 1015.5
20260904061537 73 159 0.0 0.0 0.00 0.00 0.00 95 1015.6
20260904060058 73 159 0.0 0.0 0.00 0.00 0.00 95 1015.7
20260904054533 73 159 0.0 0.0 0.00 0.00 0.00 95 1015.7
20260904053035 73 159 0.0 0.0 0.00 0.00 0.00 95 1015.6